Home > Weather > Jacksonville > Past weeks

Flag for U.S.A. Weather for the Past 2 Weeks in Jacksonville, Florida, U.S.A.

Now
39 °F

Clear.


Feels Like: 35 °F
Forecast: 32 / 64 °F
Wind: 6 mph from Northwest

Location: Jacksonville Naval Air Station

Current Time: Feb 11, 2016 at 3:49:40 AM

Latest Report: Feb 11, 2016 at 2:53 AM


Visibility: 10 mi

Pressure: 30.24 "Hg

Humidity: 46%

Dew point: 20 °F

Location of JacksonvilleLocation

Historic Weather in Jacksonville — Graph

°F

Jacksonville Temperature Yesterday

Maximum temperature yesterday: 52 °F (at 1:53 PM)
Minimum temperature yesterday: 36 °F (at 6:53 AM)
Average temperature yesterday: 44 °F

High & Low Weather Summary for the Past Weeks

 TemperatureHumidityPressure
High83 °F (Feb 3, 1:53 PM)94% (Feb 2, 8:04 AM)30.33 "Hg (Feb 2, 8:04 AM)
Low36 °F (Feb 10, 6:53 AM)16% (Feb 10, 1:53 PM)29.75 "Hg (Jan 28, 3:53 PM)
Average57 °F65%30.05 "Hg
* Reported Jan 27 2:53 AM — Feb 11 2:53 AM, Jacksonville, Weather by CustomWeather, © 2016

Note: Actual official high and low records may vary slightly from our data, if they occured in-between our weather recording intervals... More about our weather records

Advertising

Jacksonville Weather History for the Previous 24 Hours

 ConditionsComfort  
Time TempWeatherWind HumidityBarometerVisibility
2:53 AM
Thu, Feb 11
39 °FClear.6 mph46%30.24 "Hg10 mi
1:53 AM38 °FClear.6 mph51%30.24 "Hg10 mi
12:53 AM40 °FClear.7 mph45%30.22 "Hg10 mi
11:53 PM
Wed, Feb 10
41 °FClear.6 mph41%30.23 "Hg10 mi
10:53 PM41 °FClear.3 mph43%30.24 "Hg10 mi
9:53 PM43 °FClear.3 mph34%30.23 "Hg10 mi
8:53 PM45 °FClear.3 mph28%30.22 "Hg10 mi
7:53 PM47 °FClear.6 mph25%30.22 "Hg10 mi
6:53 PM48 °FClear.8 mph23%30.20 "Hg10 mi
5:53 PM51 °FPassing clouds.13 mph19%30.17 "Hg10 mi
4:53 PM52 °FSunny.13 mph17%30.14 "Hg10 mi
3:53 PM52 °FSunny.17 mph17%30.12 "Hg10 mi
2:53 PM52 °FSunny.18 mph16%30.12 "Hg10 mi
1:53 PM52 °FSunny.18 mph16%30.12 "Hg10 mi
12:53 PM51 °FSunny.15 mph17%30.13 "Hg10 mi
11:53 AM50 °FSunny.17 mph22%30.16 "Hg10 mi
10:53 AM47 °FSunny.16 mph25%30.18 "Hg10 mi
9:53 AM44 °FPassing clouds.13 mph32%30.17 "Hg10 mi
8:53 AM41 °FPassing clouds.13 mph41%30.17 "Hg10 mi
7:53 AM38 °FPassing clouds.8 mph48%30.15 "Hg10 mi
6:53 AM36 °FPassing clouds.8 mph54%30.13 "Hg10 mi
5:53 AM37 °FClear.9 mph52%30.11 "Hg10 mi
4:53 AM37 °FClear.6 mph57%30.10 "Hg10 mi
4:01 AM39 °FClear.6 mph50%30.10 "Hg10 mi
Weather by CustomWeather, © 2016

See weather overviewHow to use our weather pages